Theta_e
304 303 302 301 300 299 298 298 298 297 297 297 297 297 296 296 296 295 296 295 295 294 294 294 293 293 294 293 293 293 293 294 294 294 294 294 294 294 294 293 293 293 292 292 291 291 291 291 291 291 292 291 290 290 291 291 291 290 290 290 289 289 289 291 291 291 289 289 291 291 291 292 293 294 294 295 296 297 298 299 300 300 301 301 301
303 302 301 300 298 298 297 296 296 295 295 295 296 296 296 296 296 295 295 294 294 294 294 294 294 294 294 293 293 294 293 292 292 293 293 294 293 293 293 293 293 292 292 292 291 291 290 290 290 290 291 291 290 290 290 290 290 290 290 289 290 288 288 290 290 290 288 286 285 286 288 292 293 293 293 294 296 298 299 300 300 300 300 300 300
301 300 300 298 298 296 295 294 295 296 295 295 296 296 296 295 295 295 294 294 294 294 294 294 295 296 295 294 294 293 294 294 294 294 293 293 293 293 293 293 292 292 292 291 291 290 290 290 290 290 290 290 289 289 289 289 290 290 290 288 287 289 288 290 290 291 286 287 287 286 285 284 289 291 296 298 297 296 295 294 294 294 295 297 297
300 299 298 297 297 295 294 293 294 294 294 293 294 294 294 295 295 295 294 294 294 294 295 295 296 295 295 294 294 294 292 292 292 292 292 292 292 292 292 292 292 291 291 291 290 290 290 289 289 289 289 290 289 288 288 288 289 289 289 289 288 285 287 287 290 290 288 286 282 284 283 284 282 287 287 290 292 291 291 292 294 294 296 298 297
301 299 298 296 295 294 293 293 293 292 293 292 293 293 294 294 295 295 294 294 294 294 295 295 294 293 292 292 292 291 290 290 291 290 291 292 291 292 292 292 292 291 291 290 290 289 290 289 289 289 289 289 289 288 288 288 288 289 289 288 287 286 285 286 288 289 288 289 286 283 282 282 282 283 285 285 289 290 292 293 293 293 293 293 295
303 300 298 297 296 295 294 292 291 292 292 292 293 293 293 294 294 294 294 294 294 294 294 294 292 291 290 289 288 288 288 289 288 289 290 290 290 292 292 292 291 290 290 290 289 289 289 289 289 288 288 288 289 288 288 288 288 288 288 288 287 287 286 285 285 288 288 289 289 288 286 282 281 284 284 280 287 288 288 290 292 293 294 293 294
303 302 299 296 296 294 293 291 291 291 292 293 293 293 293 294 294 294 294 293 294 294 294 293 292 291 290 290 290 290 289 291 292 292 292 292 292 291 290 291 291 290 290 290 289 289 289 288 288 288 288 288 288 287 287 287 287 288 288 288 287 287 286 284 284 285 287 287 288 289 288 288 287 284 281 282 280 285 288 288 289 291 292 293 293
302 301 299 297 296 294 293 292 291 291 292 292 292 292 292 293 293 294 293 293 294 293 293 292 291 291 291 291 291 291 291 291 291 290 291 290 290 289 289 290 290 290 289 289 289 288 288 288 288 288 287 287 287 287 286 287 287 288 288 288 287 286 286 284 284 285 283 284 287 286 286 287 288 287 286 283 282 280 282 288 289 290 291 292 292
303 301 299 297 296 295 294 292 291 291 291 291 291 291 292 292 293 293 292 293 293 293 292 292 292 291 291 291 290 291 291 291 291 290 289 289 288 289 289 288 289 289 289 288 288 288 287 287 287 287 286 286 286 286 286 287 286 286 286 286 286 286 286 286 285 284 284 283 284 284 285 285 286 286 286 286 282 281 280 282 284 288 289 289 290
303 302 300 299 297 296 295 293 291 291 291 292 291 291 291 292 292 292 291 292 292 291 292 291 291 291 290 290 290 289 290 290 290 289 289 289 288 288 288 288 288 288 288 288 288 287 287 287 286 286 286 286 286 286 286 286 286 286 286 286 286 285 285 285 284 284 284 284 284 284 283 283 283 283 284 284 284 284 280 281 283 283 282 285 288
300 301 301 299 298 295 293 291 290 290 291 291 291 291 291 291 291 290 291 291 291 291 290 290 290 290 290 290 290 290 290 289 288 288 288 288 287 287 287 288 288 287 287 287 287 287 286 286 286 285 285 285 285 285 285 285 285 285 285 285 285 284 284 284 284 284 284 284 284 283 282 282 281 281 281 282 282 281 281 281 282 283 282 282 285
300 298 298 297 295 294 292 291 290 289 289 289 290 290 290 290 290 290 290 290 290 290 289 289 289 289 289 289 289 290 290 288 287 287 287 287 287 286 287 287 286 287 287 286 286 286 286 285 285 285 284 284 284 285 285 285 285 284 284 284 284 284 284 283 283 283 283 283 283 283 283 283 283 282 283 283 282 281 281 280 280 282 281 282 284
297 296 296 295 293 292 291 290 289 288 288 288 289 290 290 290 289 289 288 289 289 289 288 288 288 288 288 288 289 289 289 288 287 287 287 286 286 286 285 285 285 285 285 285 286 286 285 285 284 284 284 284 284 284 284 284 284 284 283 283 283 283 283 283 282 282 283 282 282 283 283 283 282 284 284 283 283 283 282 279 280 281 278 279 282
296 295 295 294 293 292 291 290 289 289 288 288 288 289 289 289 289 288 288 288 288 288 287 287 287 287 287 287 288 288 287 287 287 286 286 286 286 285 285 284 284 284 285 284 285 285 284 284 284 283 283 283 283 283 283 283 283 283 283 282 282 283 283 282 282 282 282 282 282 282 282 282 282 283 283 282 282 281 279 279 278 279 279 278 280
295 294 294 293 293 292 291 290 290 289 288 288 288 288 289 288 288 288 288 288 287 287 287 286 286 286 286 287 287 287 286 286 286 286 285 285 285 284 284 284 283 284 284 284 284 283 283 283 283 282 282 282 283 282 283 283 283 282 282 282 282 282 282 282 281 281 281 281 282 281 281 281 282 282 282 282 282 281 280 280 279 276 276 278 277
293 293 293 293 293 292 291 290 290 289 288 288 287 288 288 288 288 288 288 287 286 286 286 286 286 286 286 285 285 285 285 285 285 285 285 285 284 283 283 283 283 283 283 283 283 282 282 282 282 282 282 282 282 282 282 281 282 281 281 281 280 282 281 281 281 281 281 281 281 281 281 281 281 281 281 281 281 282 281 281 280 278 275 273 276
293 293 293 292 292 291 291 290 289 288 288 287 287 288 288 288 287 287 288 287 286 286 286 286 286 285 285 285 285 284 284 283 283 283 283 283 283 283 282 282 282 282 282 282 281 281 281 281 281 281 281 281 281 281 281 280 280 280 280 280 280 280 280 280 280 280 281 281 281 281 281 281 281 281 281 281 281 281 281 281 280 278 277 275 273
295 293 293 293 292 291 290 290 289 288 287 287 287 288 288 288 288 287 287 286 286 286 285 285 285 284 284 284 284 283 283 283 282 282 282 281 281 281 281 281 281 281 281 281 281 280 280 280 280 280 280 280 280 280 280 279 279 279 279 279 279 280 279 280 280 280 280 280 280 280 280 280 280 281 280 281 281 281 280 280 280 280 279 276 275
295 294 293 292 292 291 290 289 289 288 288 288 288 288 288 288 288 288 287 286 286 286 286 285 285 285 284 283 283 282 282 282 282 282 281 280 280 280 280 280 281 280 280 280 279 279 279 279 279 279 279 279 279 279 279 279 279 278 278 278 279 279 278 278 279 279 279 279 279 279 279 279 280 280 280 280 280 280 279 280 279 279 279 278 277
297 295 294 293 292 291 290 289 288 288 287 287 287 287 287 287 287 287 287 286 286 285 285 284 284 284 283 283 282 282 282 281 281 280 279 279 279 279 279 279 279 279 279 279 279 278 278 278 278 278 278 278 278 278 278 278 278 278 278 278 278 278 277 277 277 278 279 279 278 278 278 278 279 279 279 279 279 279 279 278 278 278 278 278 277
298 297 295 293 292 291 290 290 289 289 288 288 287 287 287 287 287 287 286 285 285 285 285 284 284 283 282 281 281 281 280 280 279 279 279 279 279 279 279 279 279 278 278 278 278 278 277 277 277 277 277 277 277 277 277 277 277 276 277 277 276 276 276 276 276 276 277 277 277 277 277 277 278 277 277 277 277 278 278 278 278 277 276 277 276
298 297 295 294 292 291 290 290 289 288 287 287 287 287 286 286 286 287 286 285 284 284 284 283 283 282 281 281 280 280 280 279 279 279 278 278 278 278 278 278 277 277 277 277 277 277 277 276 276 276 276 276 276 276 276 276 275 275 275 275 275 275 274 274 274 274 275 276 276 275 275 275 276 275 275 275 276 276 276 276 275 275 275 275 276
298 296 294 293 291 290 289 288 288 287 287 286 286 286 286 286 286 286 285 285 285 284 284 283 281 281 281 280 280 279 279 278 278 278 278 278 278 278 278 277 277 277 277 276 276 276 276 276 276 276 276 275 275 275 275 274 274 273 273 273 273 273 272 272 272 273 273 274 273 273 273 274 274 273 273 274 275 275 274 274 274 274 274 274 275
297 296 294 292 290 290 289 288 287 286 286 286 286 286 286 286 285 286 285 285 284 283 283 281 281 280 280 279 279 279 278 278 277 278 277 277 277 277 277 276 276 276 275 276 276 275 275 275 274 274 274 274 274 273 273 273 273 272 272 271 272 271 271 271 271 271 271 271 271 271 271 272 272 271 272 272 273 273 272 272 272 273 274 273 274
294 294 292 290 289 288 288 287 287 286 286 286 286 285 285 285 285 285 285 285 283 283 281 281 280 280 279 279 278 278 277 277 277 277 277 277 277 276 276 276 275 275 275 275 275 275 274 273 273 273 273 272 272 272 272 271 271 271 271 271 271 270 270 270 270 270 271 271 270 270 270 271 271 270 270 270 271 270 271 271 271 272 272 272 273
294 294 291 289 289 288 288 287 287 286 286 286 286 285 285 285 285 285 285 284 282 282 281 280 280 279 278 278 278 277 277 277 277 277 277 277 276 276 275 275 275 274 274 274 273 273 273 272 272 272 271 271 271 271 271 270 270 271 270 270 270 270 270 270 270 270 270 270 270 270 270 270 270 269 269 269 270 270 270 270 270 271 271 272 272
294 294 292 290 289 288 288 287 287 286 286 286 285 285 285 285 284 285 284 283 282 281 280 280 279 279 278 278 277 277 277 277 277 277 276 276 275 275 275 274 274 273 272 272 272 271 272 271 271 271 270 270 270 270 270 270 270 270 270 270 270 270 270 270 270 271 271 271 271 271 270 270 270 270 269 269 270 270 270 270 270 270 271 271 271
295 294 292 290 289 289 288 287 287 286 286 285 285 285 284 284 284 284 283 282 281 280 280 279 279 278 278 277 277 277 277 277 277 276 276 275 275 274 273 273 272 271 271 270 270 270 270 270 270 270 270 270 270 270 270 270 270 270 270 270 270 270 270 270 271 271 271 271 271 272 271 271 270 270 270 270 270 270 270 270 271 271 271 271 271
295 294 292 291 290 289 288 287 287 286 285 285 285 285 284 284 284 283 282 281 281 280 279 279 278 278 277 278 277 277 277 276 276 275 274 274 273 272 272 271 270 270 270 270 269 269 269 269 269 269 269 270 269 269 270 270 270 270 270 270 271 271 271 271 271 271 271 271 271 272 272 272 272 274 275 275 275 275 271 270 271 272 271 271 271
295 295 294 293 292 291 289 288 287 286 285 285 284 284 284 283 283 282 281 281 280 279 278 278 278 278 277 277 277 276 275 275 274 273 273 272 272 271 270 269 269 269 268 268 268 268 268 268 268 269 269 269 269 270 271 272 273 271 271 272 272 272 272 271 271 271 271 272 272 272 272 275 275 276 276 276 277 277 277 275 273 273 272 272 272
297 297 296 295 294 293 292 290 287 286 286 285 284 284 284 283 283 282 281 280 280 278 278 278 277 277 277 276 275 275 274 273 273 273 272 271 270 269 268 268 268 267 267 267 267 267 267 268 268 269 269 269 269 270 272 273 274 275 273 272 272 272 272 272 272 272 271 271 272 273 273 274 274 275 274 276 277 277 278 278 278 278 278 275 273
297 297 297 296 295 294 293 291 289 287 286 285 284 284 283 282 282 281 280 279 279 278 277 277 277 277 276 275 274 274 273 272 272 271 270 269 268 267 267 266 266 266 266 267 267 267 268 268 268 268 268 269 269 271 272 273 274 275 275 273 273 273 272 272 272 272 272 272 272 272 272 272 272 273 273 273 274 276 277 278 278 278 279 279 280
297 297 297 297 296 294 293 292 291 288 286 285 284 283 282 282 281 280 279 278 278 277 277 277 276 275 275 274 274 272 272 271 270 269 268 267 266 266 265 265 265 266 266 266 266 267 268 268 268 268 268 268 268 271 272 273 274 275 276 275 273 273 272 272 272 272 272 271 271 271 271 272 272 275 274 273 273 273 275 277 277 278 278 279 279
298 298 298 298 298 296 294 293 292 289 287 286 285 283 283 282 281 279 278 277 277 277 277 276 275 274 274 273 272 271 270 270 269 268 267 266 265 265 265 266 266 266 266 266 267 267 267 267 267 267 267 267 268 270 272 273 274 275 276 276 273 273 272 272 272 271 271 271 272 271 271 271 272 272 272 272 272 272 272 272 273 273 273 275 278
298 298 298 297 297 297 294 291 290 288 286 285 284 283 282 281 279 278 277 277 276 276 276 275 274 273 272 272 271 270 269 268 267 266 266 265 265 265 265 266 266 266 266 266 266 266 266 266 266 266 266 266 267 270 272 273 274 275 276 276 273 272 272 271 272 272 272 272 272 272 272 272 272 272 273 273 272 272 272 272 272 272 273 274 274
298 297 298 298 297 296 293 291 289 287 285 284 283 282 281 279 278 277 276 276 276 275 274 274 273 271 271 271 270 269 268 267 266 265 265 265 265 265 265 266 266 266 267 267 266 267 266 265 266 266 266 265 267 270 272 273 274 275 276 273 272 272 272 272 272 272 273 273 273 273 272 272 273 272 274 277 276 274 273 272 272 272 273 274 274
298 298 298 298 297 294 292 290 287 286 284 283 282 281 279 277 277 276 276 275 275 274 273 272 271 271 270 270 269 268 267 266 265 264 264 264 265 265 265 266 265 266 266 266 266 266 266 266 265 265 265 265 266 268 271 273 274 275 274 272 272 272 272 271 272 273 273 273 273 273 273 273 273 273 276 278 278 277 273 272 272 272 273 273 273
298 298 298 295 293 291 290 288 286 284 284 283 281 280 278 277 276 275 275 274 274 273 273 272 271 270 270 269 269 267 266 265 264 264 264 265 265 265 265 266 265 265 265 265 265 265 265 266 265 265 265 265 265 268 272 273 274 275 275 272 272 271 271 272 272 273 273 274 274 276 276 274 273 273 277 278 278 276 273 273 272 272 272 272 273
298 298 297 295 291 290 288 287 285 283 283 281 280 279 277 276 275 274 274 273 273 273 272 271 270 269 268 268 267 267 266 265 264 264 264 264 264 264 265 265 265 265 265 265 265 265 265 265 265 265 267 267 267 269 271 273 274 275 274 272 272 271 271 271 272 272 273 273 274 274 275 275 275 275 278 278 278 277 274 273 273 273 272 272 274
297 296 295 292 289 287 285 286 284 284 282 280 279 278 276 275 274 273 273 272 273 272 271 270 268 267 267 266 266 266 265 264 264 264 264 264 264 264 264 264 264 265 265 265 265 265 264 264 265 266 266 267 267 268 269 273 274 274 275 273 272 271 271 271 272 272 272 272 272 272 273 275 277 277 277 278 278 278 275 274 274 273 272 272 275
296 294 290 288 287 287 286 286 285 283 281 280 278 277 276 274 273 272 272 272 272 270 269 268 267 265 265 265 265 265 264 264 264 263 263 263 264 264 264 264 263 264 264 264 263 263 263 264 266 267 267 267 268 268 269 272 273 274 275 275 272 272 272 272 271 271 271 270 270 270 271 274 276 276 277 277 278 278 278 275 274 273 274 275 277
289 289 288 287 286 285 285 284 283 281 279 278 277 276 275 274 273 272 273 272 270 269 268 266 265 264 264 263 263 263 263 263 263 263 262 262 264 264 263 263 263 264 262 261 262 264 264 265 266 267 267 268 269 270 269 271 273 274 275 276 273 272 273 272 271 270 270 269 269 269 270 272 275 276 277 277 278 278 278 275 274 278 279 280 276
288 286 287 286 285 284 284 283 280 279 278 278 277 275 274 273 272 272 272 270 269 267 266 265 264 263 263 262 262 261 261 261 262 262 262 262 263 261 261 262 262 262 262 262 263 264 264 265 265 267 267 268 268 269 271 270 272 274 275 275 276 274 276 273 270 269 269 268 269 269 270 274 276 276 276 277 277 277 276 274 277 278 279 280 279
289 288 287 285 285 284 283 280 278 278 277 277 276 274 273 272 272 271 270 268 267 266 265 264 262 262 261 261 261 261 261 261 261 262 262 262 262 261 261 262 262 262 263 263 265 265 265 265 265 266 267 268 268 269 270 271 271 273 274 275 275 275 275 272 271 269 269 269 269 269 271 275 275 275 276 276 276 275 273 276 277 277 277 277 276
287 286 285 284 284 283 280 277 276 276 276 276 276 274 272 271 271 269 268 266 265 264 263 262 261 261 260 260 260 260 261 260 261 261 261 261 261 261 261 263 262 263 264 264 264 264 265 265 265 265 266 267 268 268 268 270 272 273 274 274 275 275 275 274 270 269 269 269 272 275 275 274 274 274 274 274 273 272 274 275 275 276 275 273 273
285 284 283 282 282 280 278 275 275 275 275 275 276 275 271 272 269 267 267 266 264 263 262 261 261 260 260 260 260 260 260 260 261 261 262 262 261 261 262 263 263 264 264 263 264 265 265 265 265 265 266 266 267 267 268 269 270 271 272 273 274 274 273 273 272 270 272 273 273 273 273 272 272 271 269 269 269 269 273 273 273 273 271 270 271
284 283 281 279 278 277 275 274 273 273 274 274 275 274 273 269 267 267 266 264 263 263 262 261 260 260 260 260 260 260 260 260 260 261 262 263 263 263 263 263 264 264 264 264 264 265 265 265 264 265 265 266 266 267 268 268 269 270 270 270 270 270 272 271 269 268 270 268 268 268 268 271 270 271 271 271 270 270 269 269 269 269 269 270 270
284 282 279 279 278 277 275 273 272 272 273 273 274 273 270 267 267 266 264 263 263 262 261 260 260 259 259 260 260 260 259 259 260 261 261 262 262 263 263 264 264 264 263 264 264 265 265 264 264 265 265 265 265 266 267 268 269 269 269 270 270 269 269 268 268 268 268 266 265 268 267 266 266 266 266 266 266 267 267 267 268 268 268 269 271
281 280 278 278 278 277 275 273 272 272 272 273 273 271 267 266 265 263 263 263 263 262 261 260 259 259 259 260 261 260 261 260 260 261 262 263 262 262 264 264 264 265 265 265 265 265 265 265 265 265 264 264 265 266 267 272 270 272 270 269 269 269 268 268 269 272 267 265 264 264 263 263 263 263 264 264 264 265 265 266 267 267 268 268 268
283 281 279 278 278 277 275 273 272 271 271 271 271 267 266 266 264 263 263 262 262 261 260 259 259 259 260 260 260 260 261 260 260 260 260 260 263 265 265 263 263 267 269 269 269 266 266 266 266 266 267 265 265 267 271 272 272 272 273 273 272 272 271 270 271 271 267 262 262 261 262 262 262 262 262 263 263 264 264 265 266 268 267 267 267
283 279 277 277 277 276 275 272 271 270 270 270 269 265 265 264 263 263 263 263 261 260 260 260 260 259 260 259 260 259 260 261 261 261 261 260 261 263 267 268 268 268 268 269 269 269 269 269 268 266 267 269 270 271 271 271 271 272 272 272 272 271 270 271 271 266 262 261 260 260 261 261 261 262 261 262 263 263 264 264 265 266 266 266 267
Wind_Speed
10 12 14 15 15 13 13 12 13 14 14 16 16 16 15 14 14 14 12 12 10 10 9 9 9 8 7 8 7 7 6 6 5 5 5 4 5 4 4 3 3 2 1 2 2 2 3 4 4 5 5 5 5 6 7 8 8 8 8 7 8 9 8 7 7 8 10 11 8 10 11 13 14 13 14 14 11 9 8 8 8 8 8 8 8
10 10 11 13 12 13 12 11 13 17 14 16 16 16 15 15 15 13 12 12 11 11 10 9 9 8 8 8 7 7 7 6 6 6 5 4 4 5 4 3 3 2 2 2 2 3 3 4 5 5 5 5 5 6 8 9 9 8 7 7 7 8 8 7 7 7 7 8 13 13 8 7 7 9 12 10 8 7 7 8 8 8 9 9 9
11 11 12 12 13 14 12 11 11 15 15 16 15 15 15 14 13 13 12 12 11 11 10 9 8 7 7 7 7 6 4 4 4 5 4 4 5 5 4 4 3 3 3 3 2 3 4 5 5 5 5 5 5 6 7 8 8 8 8 8 8 7 8 7 6 4 7 8 10 11 11 14 4 5 3 0 4 6 8 11 13 12 13 11 10
12 12 13 13 13 13 11 10 11 12 12 12 14 15 12 13 14 13 12 12 11 10 9 9 7 7 5 6 4 4 5 4 3 3 4 4 5 5 4 4 4 3 3 3 3 4 4 5 5 5 5 5 5 6 7 8 8 8 8 8 8 9 6 6 5 5 5 7 8 5 11 8 13 3 9 9 8 13 14 13 9 9 9 8 9
10 12 13 14 15 15 15 12 11 12 12 13 14 14 10 14 14 14 12 12 10 10 10 9 9 8 6 6 4 3 2 4 4 5 5 5 4 5 4 5 4 3 3 3 3 4 5 5 5 5 5 5 5 6 7 8 8 8 8 8 8 8 9 6 6 5 6 5 5 8 7 6 7 11 14 15 6 5 4 7 9 12 13 11 10
10 13 15 15 14 13 13 13 13 13 13 13 12 13 11 13 14 14 11 11 11 12 11 9 8 8 8 7 7 6 6 6 7 7 6 6 5 4 4 3 3 2 3 3 4 4 5 5 6 6 6 5 5 6 7 8 9 9 8 7 9 9 8 8 7 5 5 6 7 8 7 8 13 13 9 12 7 8 13 8 9 8 9 11 11
9 9 12 14 14 14 14 14 15 15 13 11 11 12 12 13 13 13 12 11 10 12 12 9 9 8 10 9 7 8 7 6 5 4 4 4 3 3 2 2 3 3 3 4 4 5 5 6 6 6 6 6 6 6 7 9 8 8 7 7 8 7 7 8 8 7 6 6 7 9 10 10 11 10 10 11 17 9 5 9 10 9 10 11 12
10 12 13 14 14 16 17 16 14 15 13 12 12 12 14 15 14 14 10 11 10 11 12 10 10 9 9 8 7 7 6 6 6 5 4 3 3 3 2 2 3 4 4 5 5 6 5 6 6 5 6 6 6 7 8 8 8 7 8 8 8 7 8 8 8 6 6 7 6 8 9 10 11 12 13 11 13 17 19 5 8 9 10 9 10
11 11 13 14 15 15 14 14 14 14 13 13 13 13 12 14 13 12 11 11 10 13 12 11 9 9 9 8 7 5 5 4 4 4 4 4 3 3 3 3 3 4 5 5 5 6 5 5 5 6 6 6 6 7 8 9 10 9 9 8 8 8 7 7 8 7 7 8 7 8 8 9 10 10 11 10 11 13 20 16 11 7 10 12 10
9 11 12 12 13 13 12 12 14 13 12 11 12 12 13 13 13 14 12 10 10 12 12 12 11 9 9 9 9 7 6 5 5 5 5 4 4 4 4 4 4 5 5 6 5 6 5 5 5 6 6 7 7 8 9 9 9 9 9 9 9 9 8 8 8 8 7 8 8 8 8 9 10 9 10 10 12 12 15 20 17 14 15 11 7
7 9 10 11 10 11 12 13 14 13 11 13 12 13 13 13 14 15 14 11 12 12 13 12 11 10 9 9 10 9 9 7 6 6 5 5 5 5 5 4 4 4 4 4 5 5 5 5 5 6 6 6 7 8 9 8 8 8 8 9 10 10 9 9 10 9 9 9 9 9 9 9 10 10 10 9 11 11 12 17 18 17 16 18 9
9 8 9 10 10 10 11 13 14 14 12 13 12 13 14 13 14 16 15 14 13 13 13 12 11 10 9 10 10 9 9 7 7 7 7 6 5 5 4 4 4 4 4 4 4 3 3 4 5 6 6 7 8 7 8 7 7 8 8 8 8 9 9 9 9 9 10 9 10 9 10 10 11 11 11 11 10 11 12 16 16 15 18 16 7
8 8 8 9 10 12 13 13 14 15 15 16 15 14 13 13 16 17 17 16 14 15 15 14 12 11 10 10 10 9 8 8 7 7 6 6 5 5 5 4 4 4 4 3 3 3 3 4 5 5 5 6 7 7 8 8 8 8 8 9 9 10 9 9 9 9 10 9 9 9 10 10 11 10 11 11 11 11 12 14 15 12 16 20 14
6 8 9 10 10 11 12 13 14 13 14 15 16 14 14 14 16 18 18 16 15 15 16 15 14 12 12 10 10 8 9 8 7 6 6 5 5 5 5 5 4 4 3 3 2 3 4 5 6 7 7 8 8 9 9 8 9 8 9 9 10 9 9 10 10 11 11 12 10 10 11 11 11 11 11 11 11 11 12 13 14 13 14 18 16
5 7 8 10 11 12 12 13 13 13 15 16 14 15 14 14 16 19 18 17 16 16 14 15 13 13 12 11 10 8 8 7 7 6 6 6 5 5 5 4 4 4 4 3 3 3 5 6 7 8 8 8 8 8 8 8 8 8 8 9 9 9 10 9 10 11 11 12 12 11 11 11 11 11 11 12 12 12 13 12 11 14 15 15 17
7 7 8 9 10 11 10 12 12 12 15 14 16 15 15 16 17 19 19 17 16 16 15 15 14 12 13 12 11 10 8 7 7 6 6 6 6 5 5 5 4 4 3 3 4 4 5 6 7 8 8 8 8 9 9 8 8 8 8 9 10 8 9 11 10 11 12 13 13 13 12 13 12 12 12 12 12 13 12 12 12 14 17 19 14
8 8 8 9 10 10 10 12 11 12 13 16 17 17 17 16 17 18 18 15 16 16 15 14 14 13 13 13 12 11 11 10 9 9 8 7 6 5 5 5 4 4 4 3 4 5 5 6 7 8 8 8 8 8 9 8 8 8 9 9 10 9 10 11 10 11 11 12 11 13 13 12 12 12 12 12 13 13 13 13 15 17 16 16 17
7 7 7 8 9 11 11 11 13 14 15 15 16 15 14 14 16 18 17 17 16 17 16 15 15 14 14 14 13 12 11 10 9 9 8 7 6 6 5 5 5 4 4 4 4 5 6 8 8 8 8 8 8 8 8 8 8 8 9 10 9 10 10 10 10 10 11 11 12 12 12 12 11 12 13 13 13 15 16 15 16 17 16 18 16
9 10 10 10 11 12 13 13 12 11 12 13 13 13 13 13 15 17 17 16 16 14 14 12 13 10 11 13 14 12 11 10 9 9 8 8 8 7 7 6 5 5 5 5 6 6 6 6 7 7 7 8 8 8 8 8 8 8 9 9 9 9 10 10 10 10 10 11 12 14 13 14 15 15 16 15 16 15 16 16 16 15 17 18 20
10 11 12 10 10 11 12 12 13 14 13 13 14 12 14 14 15 16 13 14 15 16 15 14 13 11 11 12 12 11 11 11 10 9 8 8 8 7 7 6 6 5 5 6 6 6 7 7 6 7 8 8 8 8 8 8 8 9 9 9 9 10 11 11 11 10 10 11 13 15 15 14 14 14 15 15 16 15 16 17 17 17 18 20 18
9 10 11 11 10 10 11 11 10 10 10 11 13 14 14 13 15 17 17 17 17 16 15 14 12 12 14 14 14 13 12 11 10 10 9 8 7 7 6 5 5 6 5 6 6 7 7 7 7 8 8 8 8 8 7 7 8 9 9 10 10 11 12 11 11 13 12 13 14 15 15 16 16 16 16 16 15 16 16 16 17 17 15 16 20
9 9 8 8 6 6 8 8 8 10 12 13 13 12 14 15 15 16 15 15 16 16 15 14 12 12 15 14 14 12 12 10 11 10 9 8 8 7 6 6 6 6 6 6 7 6 6 7 8 8 9 9 9 8 8 8 8 9 10 8 9 10 11 12 11 13 13 11 12 14 15 14 15 16 16 16 16 15 16 16 16 18 17 17 18
8 7 7 8 8 10 10 11 13 14 12 13 13 13 14 15 16 16 16 16 16 15 13 12 12 13 15 13 13 12 12 12 12 10 10 9 8 7 7 7 6 6 6 6 6 6 7 7 8 8 8 8 8 8 7 8 8 9 10 10 9 10 11 12 12 13 13 12 14 14 15 14 13 16 16 16 16 17 17 18 19 17 19 19 19
7 4 3 5 6 5 7 10 12 12 13 15 13 12 13 14 15 15 17 17 16 14 14 13 13 13 14 14 13 12 13 12 11 9 10 9 8 8 7 7 7 5 6 5 6 6 7 7 8 8 8 8 8 8 7 8 9 9 10 11 10 11 11 11 13 13 13 12 13 14 14 14 15 17 16 16 15 17 16 16 18 18 18 20 19
7 8 8 6 7 10 10 10 11 11 11 12 13 14 14 15 15 16 16 16 14 13 14 14 14 15 14 14 13 12 13 12 11 9 11 10 9 8 7 7 6 6 6 5 5 5 6 7 7 8 7 7 7 7 8 9 9 9 10 10 11 11 11 12 12 13 13 13 13 14 14 14 16 18 17 16 16 19 17 16 17 16 18 18 16
10 8 8 12 10 7 9 11 10 11 12 12 12 13 14 14 16 14 15 15 14 13 14 14 14 15 14 14 13 12 13 12 11 10 10 9 8 8 7 6 6 6 5 5 5 5 5 6 7 7 7 7 7 7 8 9 9 9 10 10 10 11 11 11 12 12 12 12 12 14 14 16 18 18 17 17 18 19 18 18 19 18 17 17 18
13 13 11 6 6 11 12 10 10 11 11 11 12 13 14 14 15 15 14 13 13 13 14 14 14 14 13 14 13 12 11 11 11 9 9 8 8 7 7 6 5 5 5 5 5 5 5 6 7 7 7 7 7 8 8 9 9 10 10 10 10 11 11 11 11 13 14 15 17 17 18 17 18 18 19 20 19 20 16 21 19 18 18 18 18
8 8 8 12 11 9 10 13 13 12 12 11 11 12 13 14 16 15 14 13 11 14 14 14 14 13 12 13 12 11 11 11 10 9 9 8 8 7 6 5 5 5 5 5 5 5 6 6 6 6 7 6 7 8 8 9 9 9 9 9 9 11 13 14 15 15 14 15 16 17 17 18 19 19 20 19 20 19 17 19 18 17 17 18 17
12 13 13 12 11 12 12 13 13 12 13 13 12 12 12 12 13 14 13 13 13 14 14 14 13 13 13 12 12 11 10 10 10 10 9 8 8 7 6 5 5 4 4 4 4 5 6 7 7 7 7 7 7 7 7 7 7 8 9 10 12 13 13 14 15 15 16 16 16 18 18 19 19 25 29 27 26 25 19 17 16 16 17 16 17
15 16 16 17 18 18 15 13 11 14 15 14 13 13 14 15 15 14 13 13 13 13 14 13 13 12 12 12 12 10 10 10 10 9 9 9 8 7 6 5 5 5 4 4 5 6 7 7 7 7 7 6 7 6 8 13 13 10 11 10 11 12 13 14 15 16 16 15 17 16 18 25 28 30 31 32 33 33 33 27 21 20 18 16 16
18 15 15 17 18 18 17 16 13 13 15 14 13 13 12 13 13 14 14 13 14 13 13 13 13 12 12 12 11 10 10 10 10 9 8 8 8 6 6 6 5 5 5 4 5 7 7 7 7 6 6 6 7 6 12 14 15 18 13 12 12 13 13 13 15 14 16 18 17 17 16 21 22 24 23 30 30 32 31 32 34 34 30 22 17
18 15 14 14 16 17 18 18 18 16 12 11 11 13 14 15 14 14 13 13 13 12 13 12 12 12 12 12 11 10 9 9 9 8 8 8 7 6 6 5 5 5 5 5 6 7 7 6 5 6 6 7 7 10 14 15 16 17 16 13 12 12 12 13 13 14 15 16 17 16 17 14 16 19 19 21 25 30 32 32 33 32 32 34 32
16 15 14 14 13 15 17 19 17 16 14 12 12 12 14 15 14 14 12 13 12 12 12 12 11 11 12 11 10 10 9 9 9 9 8 7 7 6 6 6 6 5 5 6 7 7 6 6 6 6 6 7 8 11 14 15 16 17 18 16 11 12 13 13 15 15 16 17 16 17 19 18 17 25 21 19 20 21 26 31 32 32 32 33 32
18 16 15 14 12 10 13 17 18 17 16 9 12 10 9 10 10 10 11 11 12 11 10 11 9 10 11 11 9 9 9 9 9 8 8 7 7 6 6 5 4 5 6 7 7 7 6 6 5 5 6 7 9 11 14 15 16 17 18 16 12 13 13 14 15 16 17 18 19 18 18 18 16 18 18 20 21 19 19 18 18 18 18 22 29
19 18 16 14 13 11 10 11 12 12 9 10 10 10 11 10 10 11 10 10 8 9 8 10 9 9 9 9 10 9 9 9 9 8 8 7 7 6 6 5 5 5 6 6 6 6 6 5 4 5 5 7 8 13 14 16 16 17 18 17 12 12 13 13 14 17 16 15 17 19 18 20 22 20 19 20 19 19 18 18 18 18 18 19 20
18 16 15 15 11 8 9 11 8 10 9 10 11 11 10 9 10 11 8 7 7 7 8 8 8 8 8 9 10 10 9 9 9 8 8 7 6 6 6 5 5 5 5 5 5 5 5 5 5 5 6 7 8 13 14 15 16 17 19 12 11 12 11 12 15 15 16 18 17 16 20 19 17 21 23 32 28 22 19 20 20 19 18 18 20
19 16 15 12 6 5 7 7 10 11 10 11 10 10 11 10 9 8 9 9 9 10 8 8 8 8 9 10 10 10 10 10 9 9 8 7 7 6 5 4 4 5 5 5 5 5 4 4 4 5 6 7 7 11 13 14 15 17 15 11 11 11 12 15 14 15 18 17 17 18 16 20 21 18 26 30 32 29 20 19 19 19 18 17 18
19 15 10 4 3 3 6 11 12 12 12 10 13 16 17 14 13 11 15 11 10 11 11 10 10 10 10 10 10 10 11 10 9 9 8 7 5 4 4 4 5 5 5 5 5 5 4 4 4 5 6 6 7 10 14 14 16 17 16 11 11 12 13 12 12 16 13 13 17 27 26 20 21 21 27 31 33 27 19 18 19 20 21 20 17
14 12 11 6 6 7 9 10 12 14 13 16 19 20 19 19 17 12 14 13 11 10 10 10 10 10 9 8 8 9 10 10 10 9 8 8 7 5 4 4 4 4 4 4 5 4 3 3 4 5 9 8 7 8 12 13 16 17 15 11 12 12 12 13 15 14 16 16 15 19 27 26 23 25 32 31 32 27 20 18 19 20 20 20 17
10 7 5 3 6 8 9 12 16 17 15 18 17 18 21 20 18 18 21 21 17 15 14 12 9 9 7 7 7 8 7 8 9 8 7 7 6 5 5 5 5 4 4 4 4 3 3 3 4 5 5 5 5 5 8 14 15 17 18 13 10 10 12 15 15 16 14 13 17 18 20 25 28 30 30 33 32 33 25 21 19 19 19 22 15
8 7 5 6 8 10 13 15 8 11 15 16 20 20 18 16 15 17 24 20 18 15 15 12 11 10 9 9 7 7 9 8 7 8 7 6 5 6 6 6 5 4 3 3 3 4 4 4 3 4 4 4 4 6 7 13 15 17 19 17 10 11 12 13 14 14 14 17 17 17 16 23 29 30 31 33 35 35 32 24 19 17 18 22 24
1 2 7 6 7 7 6 5 6 11 13 16 19 21 19 15 14 14 11 13 13 12 11 11 12 11 11 10 9 8 7 7 7 7 7 6 5 5 5 5 5 4 4 5 5 4 2 2 2 3 3 3 5 9 8 12 15 18 18 21 12 12 15 14 15 14 16 16 17 16 17 23 31 32 34 35 35 33 34 22 20 29 35 37 26
8 6 7 9 8 10 10 11 11 13 14 17 19 21 18 18 16 11 12 13 11 11 12 12 12 11 11 11 10 11 9 7 7 7 8 7 6 5 5 5 5 4 5 6 5 2 1 1 2 2 2 3 5 7 11 11 15 17 19 20 22 18 23 15 13 14 16 17 17 18 19 29 33 36 35 33 31 33 27 19 30 31 32 35 27
9 9 10 9 10 10 10 9 10 12 14 19 21 20 21 19 12 11 11 13 12 11 12 12 11 11 11 11 11 11 10 8 9 9 9 8 7 6 6 5 5 5 5 5 3 1 0 0 2 3 4 4 6 6 9 14 13 18 19 21 21 23 23 15 14 14 15 17 17 17 21 34 34 33 32 30 30 28 21 29 30 31 30 27 15
11 9 7 8 12 11 8 8 7 10 11 19 19 20 23 19 15 15 15 15 14 14 13 12 11 11 10 11 10 9 9 9 9 9 8 8 8 7 6 6 5 5 4 3 2 1 1 1 2 4 4 5 6 7 7 10 16 18 19 21 22 23 22 23 15 12 14 15 22 32 33 30 30 29 30 29 24 24 27 28 29 28 26 12 12
2 3 5 6 4 6 9 11 8 7 12 18 17 19 25 20 14 12 12 14 17 19 17 12 12 11 12 12 13 11 10 10 10 8 7 7 8 8 6 6 6 5 4 4 2 2 2 1 2 3 5 5 6 7 8 9 11 14 16 19 23 21 22 23 21 17 23 27 27 27 28 26 24 22 18 16 16 17 26 27 25 23 13 12 11
7 6 7 6 7 8 11 13 14 11 14 18 18 16 17 18 14 12 13 15 15 15 14 12 12 11 12 12 11 10 10 10 8 7 6 6 6 6 6 6 6 5 5 4 4 3 2 1 2 3 5 5 6 6 7 9 8 9 10 12 13 13 18 18 14 12 14 13 17 18 17 22 20 24 24 23 21 22 17 15 13 13 12 11 11
3 5 9 8 11 14 14 15 14 14 14 18 15 17 17 16 11 14 17 15 17 14 14 12 11 10 9 10 9 12 11 8 7 7 7 6 5 6 6 6 7 6 6 5 4 4 2 1 2 3 4 5 5 6 7 8 9 10 10 11 11 10 10 10 11 12 12 13 13 15 16 12 13 13 13 12 12 12 13 14 13 12 12 12 14
8 9 13 15 15 15 16 17 17 11 16 18 17 15 17 19 19 19 21 17 13 12 12 13 10 10 9 8 8 9 8 8 8 6 5 6 6 6 6 4 3 4 5 5 4 4 3 1 1 2 3 4 5 6 7 13 13 17 15 13 11 12 11 10 14 22 15 11 10 11 10 12 12 14 14 13 12 13 12 12 14 13 11 11 11
11 10 13 14 14 17 17 17 14 13 17 17 17 17 16 12 19 23 24 25 21 13 12 11 10 10 9 8 8 8 7 8 8 7 6 3 2 6 5 6 6 9 7 6 6 4 3 2 1 1 2 3 4 6 14 17 17 18 19 21 20 20 19 16 20 23 15 10 10 10 11 12 13 13 14 14 15 14 14 14 12 15 14 13 13
9 10 13 14 16 16 14 14 14 16 19 19 18 20 22 19 19 19 23 27 19 12 10 9 10 8 9 9 9 8 7 7 7 7 6 6 5 5 9 10 9 8 6 8 9 8 6 4 2 2 2 6 8 12 14 15 16 17 19 20 21 20 19 20 21 14 9 8 10 10 11 12 12 13 13 14 15 15 15 15 14 11 12 15 16
Wind_Direction
174 184 180 181 180 180 179 178 178 178 181 178 176 174 173 165 165 170 172 171 169 169 173 174 177 178 177 182 179 174 176 170 175 184 177 179 155 172 172 187 174 184 222 246 270 283 283 282 280 273 265 269 275 279 285 290 292 290 290 287 288 288 285 288 294 301 299 293 287 288 285 271 262 262 260 255 258 269 265 268 268 272 275 277 282
157 173 175 172 172 171 172 175 173 176 182 180 179 176 173 169 171 169 172 175 180 177 174 183 185 185 178 179 177 165 166 173 181 178 178 156 161 178 185 179 184 195 215 241 259 267 273 278 274 273 273 272 277 282 282 281 281 278 279 285 276 283 287 292 293 300 297 317 322 316 287 267 273 269 262 271 267 254 262 269 273 276 279 286 287
166 182 172 172 169 169 171 173 179 183 179 181 179 173 174 173 174 172 174 175 180 178 176 184 181 180 183 173 173 153 157 161 152 140 149 163 175 180 186 182 188 200 209 218 242 255 261 265 265 272 276 276 280 279 280 282 281 279 277 276 290 282 282 278 273 276 300 311 297 288 317 328 310 267 236 335 348 326 304 287 284 283 283 282 282
175 184 182 175 171 172 173 173 175 181 177 180 179 179 175 179 177 176 174 175 178 179 179 175 161 127 101 120 107 129 156 141 151 164 177 181 193 189 193 190 191 201 200 216 229 235 245 257 270 272 275 273 274 280 280 279 279 275 271 273 280 286 282 289 285 286 285 317 322 333 305 301 309 327 338 293 287 273 265 269 271 272 274 280 289
179 187 184 178 177 183 183 177 169 181 180 181 182 179 178 180 178 175 171 175 177 170 171 154 131 128 118 106 115 109 113 168 184 194 189 188 191 189 193 183 187 193 205 221 235 245 250 253 260 271 274 274 275 275 274 273 273 273 276 273 267 276 288 287 286 274 268 253 270 312 318 300 284 309 335 299 238 268 282 298 283 278 276 274 269
187 190 185 180 182 179 180 177 178 181 186 186 180 178 168 175 177 173 171 174 175 167 164 151 155 160 161 165 175 187 188 186 195 192 182 185 194 181 169 166 178 202 214 224 233 244 247 247 250 260 267 269 265 268 274 276 272 268 265 267 272 269 277 289 287 277 264 257 246 239 240 271 307 311 323 305 311 275 273 259 272 268 271 273 270
202 193 174 176 181 179 181 182 181 185 187 172 173 175 171 176 178 175 173 173 171 166 165 161 165 176 180 185 189 188 192 189 185 168 164 163 160 164 175 181 193 206 215 219 231 234 242 248 251 254 260 265 268 270 269 270 270 269 269 262 266 277 277 280 286 296 291 262 249 246 249 260 267 289 295 310 305 301 222 274 274 264 266 267 269
190 188 180 182 180 182 185 183 182 186 178 170 173 178 174 176 175 173 171 171 163 164 167 170 172 179 179 186 189 188 189 171 160 161 167 162 161 174 196 207 200 203 216 219 223 229 239 247 250 254 257 262 264 265 266 269 271 270 265 266 266 263 265 269 285 288 288 291 283 275 271 265 259 260 262 272 288 301 300 257 255 267 269 262 271
180 177 184 184 184 185 180 180 181 178 176 174 175 178 173 177 171 170 166 166 161 165 167 173 177 176 175 176 180 184 178 177 159 164 168 172 181 187 202 217 221 223 221 227 224 232 238 248 254 257 259 264 262 266 264 264 268 271 272 269 267 269 270 276 279 279 282 282 291 280 276 269 269 263 261 259 263 290 290 291 284 282 277 274 273
182 184 183 183 181 180 179 169 172 180 177 171 171 170 172 175 172 173 168 167 162 165 167 172 174 172 175 180 180 180 177 179 184 178 181 181 188 195 203 209 213 212 211 212 220 225 236 245 251 256 261 262 263 264 266 268 269 269 266 267 268 270 270 269 267 274 275 276 272 278 277 277 273 269 261 259 262 251 270 296 299 298 292 280 280
174 179 180 177 173 169 165 170 172 172 171 170 170 171 175 175 175 176 176 169 164 168 168 170 173 175 176 179 180 180 177 180 180 188 183 183 197 199 205 213 210 212 211 218 217 226 238 245 252 260 266 270 267 268 265 267 270 274 275 272 268 266 268 268 270 268 268 266 266 263 264 265 266 270 273 272 274 276 281 279 289 295 292 290 275
170 170 167 161 157 163 167 172 172 172 167 174 175 175 179 176 177 177 179 177 170 169 172 170 173 176 177 177 179 183 175 175 187 185 187 190 195 204 205 213 219 216 215 221 226 228 246 255 259 267 269 266 262 262 267 271 276 277 275 270 269 268 267 268 267 265 261 264 265 261 261 262 262 263 267 269 265 267 272 278 285 301 298 280 283
163 167 165 169 170 172 177 178 171 177 180 180 178 177 177 178 179 180 185 181 174 172 174 174 173 177 178 178 181 181 183 180 184 186 190 189 194 201 208 216 220 228 223 232 240 244 263 263 268 269 268 266 271 274 276 278 278 274 270 271 268 268 267 266 265 263 265 265 266 265 265 262 262 261 265 263 264 269 266 274 276 284 282 295 296
178 175 175 178 178 178 181 181 180 180 179 180 180 180 182 184 184 186 186 182 174 173 175 174 178 176 177 177 179 177 180 180 181 182 186 192 192 198 203 214 222 231 241 250 266 278 265 269 272 271 269 269 270 272 272 272 271 269 269 269 271 270 270 267 266 266 264 263 261 262 259 259 260 262 262 263 264 263 261 260 275 276 275 281 290
193 186 184 183 184 180 180 184 182 182 180 180 180 184 179 182 185 188 185 184 175 173 173 176 175 175 175 178 176 173 175 176 181 182 185 187 191 193 204 209 219 226 238 249 256 262 270 272 270 272 271 271 274 274 274 272 269 271 272 274 274 272 271 270 269 268 266 262 259 258 263 261 261 260 259 260 261 256 257 261 264 276 280 274 281
194 202 197 191 186 181 180 185 184 180 181 180 184 185 186 188 187 188 186 179 175 172 175 174 172 172 174 175 175 173 170 172 177 181 182 184 190 193 202 208 217 227 242 253 256 259 263 267 268 266 268 270 272 273 274 273 274 273 274 271 270 269 272 270 269 268 266 265 264 260 259 258 258 259 257 259 258 260 261 262 261 264 267 277 278
185 200 199 191 185 188 188 187 184 179 180 185 187 188 188 181 184 185 185 178 176 173 174 172 170 169 173 172 172 171 170 175 179 178 176 179 185 196 202 209 215 224 235 241 256 257 258 260 264 267 267 267 268 270 272 273 274 274 272 272 272 272 272 271 271 270 270 272 269 265 263 263 261 259 259 257 258 261 261 260 258 256 256 261 273
188 185 196 202 196 192 191 196 192 187 183 184 186 187 186 185 183 182 183 178 177 174 173 173 171 169 170 173 172 171 172 177 176 172 173 175 183 192 202 207 212 217 221 231 241 250 256 257 257 261 263 265 268 270 271 271 272 271 271 271 271 274 273 271 269 269 270 269 268 267 266 268 266 264 263 262 261 264 264 261 260 256 253 254 258
192 200 198 193 197 197 197 195 195 191 183 184 182 180 185 185 184 186 185 178 172 172 171 173 169 168 169 170 170 170 172 172 171 167 170 181 187 195 202 206 208 210 217 228 236 245 247 253 257 265 267 267 269 270 271 271 270 271 273 273 273 271 270 272 271 272 271 269 269 269 267 270 273 270 271 269 268 268 265 263 260 259 255 253 258
216 208 201 197 198 200 196 189 190 191 183 180 180 181 185 184 181 186 180 172 170 172 173 173 171 162 162 163 170 169 168 168 168 167 178 182 190 195 203 208 211 211 221 226 234 240 250 252 257 263 264 266 265 267 267 267 269 269 272 274 276 275 274 272 274 272 273 272 272 272 272 272 274 273 271 269 269 266 265 262 262 261 260 257 259
219 214 211 197 193 194 192 187 188 189 182 175 179 183 182 180 183 184 180 174 174 174 171 174 165 165 162 167 168 167 165 165 165 172 177 182 187 194 201 206 206 216 214 224 229 238 244 250 255 257 260 261 263 268 270 269 269 271 271 272 275 274 275 273 273 273 268 271 271 273 272 274 277 274 272 274 272 270 265 263 263 263 263 264 262
227 222 213 200 172 180 183 179 185 183 184 181 178 175 179 183 183 183 179 178 174 175 174 170 166 164 167 166 166 163 164 163 167 171 177 179 186 190 191 196 210 213 215 226 232 237 242 247 250 255 256 260 263 266 268 269 270 274 274 273 275 278 277 276 276 275 274 270 272 273 276 279 277 275 276 275 272 269 268 268 268 267 264 262 263
234 223 203 185 173 178 185 189 190 189 184 179 177 179 183 182 180 185 182 183 177 174 166 164 163 165 166 164 161 162 162 166 167 171 178 180 182 185 185 195 203 207 212 218 227 232 239 243 251 253 257 261 264 266 266 267 269 272 275 274 274 275 275 275 274 273 274 276 276 275 276 279 279 279 277 275 274 272 273 273 269 267 266 265 262
232 200 167 149 153 173 189 191 192 190 189 185 180 180 182 183 185 184 187 181 174 169 165 162 164 165 164 162 163 163 163 166 168 173 176 179 177 180 184 193 199 203 211 217 222 232 238 245 250 253 254 256 258 264 269 269 268 270 272 274 274 272 272 273 273 275 276 276 275 278 278 281 281 280 279 277 275 273 272 272 272 269 266 266 268
216 210 188 168 178 182 193 196 195 193 190 185 183 182 182 185 183 188 186 180 171 164 163 164 163 162 165 163 163 161 164 167 168 171 174 174 175 176 181 190 192 203 209 216 225 230 240 246 249 253 256 259 263 266 269 268 269 267 268 272 273 271 269 271 272 273 274 274 274 274 278 279 281 279 277 274 273 274 273 272 272 270 269 270 270
219 214 181 194 199 188 187 196 200 200 190 188 185 183 184 184 188 184 181 176 169 162 163 163 164 162 164 164 162 162 165 167 166 168 169 171 170 176 180 182 191 203 208 220 229 237 239 246 250 255 256 261 264 265 264 266 267 269 268 269 271 273 273 272 272 272 273 273 275 276 277 281 281 275 272 274 272 270 271 270 270 269 269 268 267
218 213 208 190 170 199 205 204 203 196 194 192 185 183 184 184 184 183 181 171 165 161 163 163 163 162 161 164 162 162 160 162 164 162 162 165 169 173 177 179 183 192 206 220 228 235 243 247 253 255 257 260 262 263 261 264 265 267 269 268 273 276 275 275 276 280 281 282 281 280 280 274 272 270 269 270 270 268 267 268 265 267 265 265 266
226 218 196 195 207 206 200 199 194 196 192 192 192 186 185 183 183 180 177 167 161 162 164 164 161 162 161 160 157 155 157 157 155 154 157 160 161 163 169 168 175 192 206 220 227 234 241 247 251 255 258 258 260 259 262 264 268 270 272 273 275 281 284 285 282 279 279 278 276 273 272 269 268 267 266 264 263 265 263 268 264 264 264 265 264
228 225 214 201 202 203 200 197 198 188 187 191 188 186 185 185 182 178 173 169 158 160 162 160 161 161 160 154 149 151 147 145 148 151 152 157 157 158 161 167 177 190 206 216 229 235 244 249 249 250 254 256 256 258 257 260 266 273 275 283 285 283 281 282 283 282 281 277 274 275 272 271 265 267 269 269 267 265 260 258 258 255 259 260 262
249 239 230 221 220 216 203 197 185 185 190 186 186 186 186 183 181 176 170 163 154 163 160 159 161 158 150 149 145 141 144 142 147 152 154 156 157 157 161 170 181 196 206 219 225 237 242 245 249 250 253 255 256 255 257 262 268 276 283 285 288 286 286 283 284 285 282 278 279 278 274 273 275 276 276 276 275 272 269 267 266 262 257 256 255
266 253 243 235 229 226 220 208 186 186 191 186 184 182 179 179 178 174 167 161 157 160 158 157 157 151 144 141 139 142 143 148 151 151 151 153 154 155 160 171 182 197 209 218 229 234 234 237 241 250 257 259 261 258 264 268 276 283 288 290 288 288 283 285 286 285 287 288 289 282 281 283 283 281 280 278 278 276 275 272 269 268 267 261 256
270 267 259 248 235 229 226 221 212 199 180 177 175 177 175 181 175 170 162 154 155 155 153 153 148 140 140 140 141 141 143 147 146 149 149 148 149 151 159 171 184 198 209 214 227 230 234 237 240 247 256 262 266 267 273 278 285 289 291 292 292 292 292 290 288 287 289 291 288 288 285 283 282 281 281 283 280 278 277 275 274 272 270 267 264
274 268 265 260 246 230 227 226 220 207 193 184 169 164 179 177 170 165 143 151 153 148 145 143 138 138 141 141 140 141 142 144 148 148 145 145 150 156 165 178 193 198 204 218 223 228 231 234 241 247 258 266 268 271 274 282 289 294 296 298 294 291 291 289 290 289 289 288 287 289 292 289 289 287 285 281 281 280 277 276 276 275 275 272 271
275 272 269 267 259 242 225 223 218 207 192 151 166 162 159 154 146 135 139 144 137 142 138 142 137 141 141 139 137 137 141 142 142 141 145 150 156 166 172 181 185 196 214 223 224 227 232 235 241 256 266 269 271 275 281 289 295 300 303 302 295 294 292 289 285 285 287 289 288 286 287 286 282 286 282 281 281 279 281 281 279 278 277 278 277
277 277 272 265 263 257 229 218 214 191 146 137 152 147 144 140 138 136 139 136 137 136 136 140 138 137 133 135 137 139 139 141 142 144 148 153 158 164 173 184 189 203 214 219 221 223 228 228 243 250 255 265 267 273 284 295 302 305 306 309 305 299 290 280 283 283 278 274 284 284 280 285 286 284 283 278 279 277 275 273 271 268 266 266 268
271 271 273 273 269 243 208 208 175 140 145 149 156 145 134 135 125 133 132 131 127 129 132 131 132 133 137 141 140 142 138 140 143 145 148 154 162 169 176 184 195 210 215 222 229 229 230 231 236 245 254 264 270 280 294 300 304 309 313 314 305 296 289 288 287 280 276 279 272 277 280 273 277 278 278 284 281 283 278 274 271 268 266 264 264
266 265 264 269 267 208 193 154 147 149 144 155 146 132 122 125 133 131 128 135 140 140 145 140 138 140 146 148 147 140 140 142 145 145 151 158 161 170 175 182 198 214 217 222 226 232 232 233 240 245 257 268 277 284 297 306 312 316 318 311 304 297 296 294 287 288 287 280 277 276 282 285 283 286 286 286 291 288 282 276 271 268 265 263 264
261 263 262 223 163 133 144 157 151 154 156 146 134 137 134 139 147 145 145 151 152 160 154 151 150 147 144 143 145 142 141 143 147 150 151 152 151 159 171 191 199 216 221 220 230 239 237 237 245 252 261 271 278 290 300 309 316 317 318 314 310 308 301 293 290 294 286 290 289 295 300 299 296 293 293 294 296 298 291 283 276 271 269 263 260
249 251 253 207 182 165 158 151 154 164 164 148 153 155 157 156 147 154 153 154 165 156 153 148 140 134 134 133 132 137 140 144 144 147 147 148 153 160 166 180 215 227 232 232 234 241 239 253 254 254 267 271 275 285 305 315 317 319 319 314 311 305 297 298 300 300 303 297 297 302 302 299 297 295 297 298 299 299 295 292 289 286 282 277 275
245 238 230 168 134 128 147 164 183 184 156 161 152 154 163 156 155 143 157 167 161 139 114 102 109 111 108 110 121 126 126 129 135 130 134 137 142 152 165 185 209 218 227 235 228 240 249 263 260 251 259 278 288 297 307 314 320 321 321 318 310 304 306 306 308 308 304 305 307 305 304 301 301 301 301 301 300 298 297 291 284 278 274 274 272
237 223 148 159 170 176 187 192 161 138 151 156 161 158 165 159 150 156 180 149 128 127 128 127 124 122 124 123 123 128 128 126 129 130 133 141 154 162 169 186 201 220 221 238 238 248 245 252 263 273 276 284 288 308 307 316 319 320 321 323 310 311 311 308 307 308 309 310 309 307 305 305 303 304 304 304 303 301 299 296 288 278 271 270 270
358 135 164 170 164 168 162 135 130 149 147 160 162 171 170 153 160 179 151 123 129 127 120 121 126 126 126 125 127 123 119 123 127 134 137 146 159 159 170 180 201 199 206 232 234 228 240 269 285 281 280 296 315 320 318 316 318 319 320 321 318 314 312 311 312 309 310 309 308 307 306 305 305 305 307 307 306 305 305 303 296 293 291 288 279
198 197 189 172 176 183 184 176 151 156 156 164 168 173 169 154 170 149 130 138 130 127 128 128 127 130 132 133 133 135 136 135 139 144 146 154 155 157 181 192 201 195 208 226 219 214 236 297 302 306 307 322 324 323 319 318 318 320 321 322 320 318 317 317 314 309 310 309 307 305 302 303 307 310 310 309 309 311 311 304 300 301 305 306 299
210 202 187 182 190 184 183 158 139 155 164 163 169 172 165 169 158 134 132 119 127 127 130 128 132 135 136 138 138 138 136 140 147 152 155 159 164 165 181 190 191 198 201 208 198 190 257 319 324 320 329 330 325 322 320 320 320 323 324 324 323 321 320 319 315 311 309 307 306 303 307 311 312 312 312 312 313 314 309 308 308 309 311 315 306
202 192 176 184 193 185 167 154 165 160 156 171 173 170 171 168 139 140 145 143 139 135 134 134 134 136 131 132 134 134 140 144 150 155 156 162 165 168 180 187 187 202 197 202 188 150 103 15 327 327 328 328 328 324 322 319 324 325 325 324 324 323 324 323 319 312 308 304 307 311 311 312 314 314 314 315 312 310 310 312 313 313 315 309 313
155 180 176 189 166 160 167 167 162 174 159 177 180 171 175 160 136 139 143 137 136 133 133 133 132 134 137 140 140 143 147 151 156 161 165 162 160 174 179 173 184 187 191 190 173 136 96 21 334 329 329 329 328 326 323 326 326 325 326 325 325 327 326 325 323 315 311 314 315 314 313 313 313 315 318 316 313 312 313 314 314 314 310 307 308
218 188 144 165 166 173 184 182 180 172 175 183 183 183 165 127 149 141 142 139 135 135 131 134 137 134 142 144 139 145 150 156 159 159 166 160 162 177 173 172 181 180 185 179 158 121 95 34 331 326 327 330 330 326 327 326 323 324 326 325 326 325 328 328 323 311 318 325 316 314 314 317 316 316 317 316 314 314 314 313 313 312 310 307 304
176 163 174 176 186 192 191 184 189 174 165 182 181 174 156 133 136 145 140 141 140 142 139 138 131 132 143 147 141 139 138 143 159 162 160 160 170 177 173 180 179 180 178 166 141 122 109 77 323 327 326 331 324 325 328 328 331 332 329 327 326 325 331 332 326 323 334 326 317 317 317 317 317 317 318 316 315 313 312 313 314 313 310 307 304
191 190 183 195 198 197 195 192 187 138 164 178 176 167 150 147 144 143 151 147 142 126 120 127 132 133 138 143 134 144 147 144 150 156 161 163 168 174 175 159 164 172 176 154 132 122 118 126 2 317 330 321 325 326 329 335 335 334 334 334 332 336 337 336 329 336 338 322 316 322 325 330 332 329 325 321 321 319 314 312 310 314 313 313 312
213 198 199 206 202 198 196 194 179 158 169 178 176 159 151 149 146 152 154 144 133 134 128 135 139 139 140 134 134 141 138 140 146 152 144 126 179 187 171 168 178 190 175 140 126 125 121 122 125 336 335 314 313 318 333 339 339 339 339 340 341 342 341 336 336 343 341 328 331 329 332 331 333 331 328 326 323 320 319 319 318 323 324 322 319
209 199 209 208 207 202 193 184 180 172 178 180 173 156 155 155 159 162 162 147 136 135 133 135 139 136 143 136 138 134 143 143 146 144 146 145 154 190 198 182 174 166 150 129 107 99 82 84 89 103 354 344 334 342 346 345 345 345 346 346 346 348 344 342 345 351 339 330 331 333 331 332 330 327 325 323 320 320 321 321 318 315 321 326 324